| time (UTC) | temp F | wind direction | speed knots | gust knots | rain 1hr in | rain 24hr in | rain mn in | humidity % | barometer mb |
| 20260506093100 | 58 | 219 | 0.9 | 0.0 | 0.00 | 0.00 | 0.01 | 54 | 1006.0 |
| 20260506091600 | 57 | 219 | 0.9 | 0.0 | 0.00 | 0.00 | 0.01 | 43 | 1005.9 |
| 20260506084552 | 53 | 225 | 0.0 | 0.0 | 0.00 | 0.00 | 0.01 | 100 | 1005.9 |
| 20260506083046 | 53 | 225 | 0.0 | 0.0 | 0.00 | 0.00 | 0.01 | 100 | 1006.3 |
| 20260506081543 | 53 | 225 | 0.0 | 0.0 | 0.00 | 0.00 | 0.01 | 100 | 1006.3 |
| 20260506073030 | 53 | 225 | 0.0 | 0.0 | 0.00 | 0.00 | 0.01 | 100 | 1006.8 |
| 20260506071526 | 53 | 225 | 0.0 | 0.0 | 0.00 | 0.00 | 0.01 | 100 | 1006.9 |
| 20260506061509 | 53 | 225 | 0.0 | 0.0 | 0.00 | 0.00 | 0.01 | 100 | 1007.7 |
| 20260506044546 | 54 | 225 | 0.0 | 0.0 | 0.00 | 0.00 | 0.01 | 100 | 1008.3 |
| 20260506043042 | 55 | 225 | 0.9 | 0.0 | 0.00 | 0.00 | 0.01 | 100 | 1008.7 |
| 20260506041537 | 56 | 224 | 0.0 | 0.0 | 0.00 | 0.00 | 0.01 | 100 | 1008.5 |
| 20260506034531 | 56 | 223 | 0.0 | 0.0 | 0.00 | 0.00 | 0.18 | 100 | 1008.4 |
| 20260506033025 | 57 | 223 | 0.0 | 0.0 | 0.00 | 0.00 | 0.18 | 100 | 1008.1 |
| 20260506031521 | 57 | 223 | 0.0 | 0.0 | 0.00 | 0.00 | 0.18 | 100 | 1008.0 |
| 20260506024532 | 58 | 223 | 0.0 | 0.0 | 0.00 | 0.00 | 0.17 | 100 | 1008.0 |
| 20260506023013 | 58 | 223 | 0.0 | 0.0 | 0.00 | 0.00 | 0.17 | 100 | 1007.9 |
| 20260506021506 | 58 | 223 | 0.0 | 0.0 | 0.00 | 0.00 | 0.17 | 1 | 1007.9 |
| 20260506014501 | 60 | 223 | 0.0 | 0.0 | 0.00 | 0.00 | 0.17 | 15 | 1007.8 |
| 20260506013001 | 60 | 223 | 0.0 | 0.0 | 0.00 | 0.00 | 0.17 | 25 | 1007.7 |
| 20260506011501 | 60 | 223 | 0.0 | 0.0 | 0.00 | 0.00 | 0.17 | 26 | 1007.3 |
| 20260506004559 | 60 | 223 | 0.0 | 0.0 | 0.00 | 0.00 | 0.17 | 28 | 1007.3 |
| 20260506003059 | 60 | 223 | 0.0 | 0.0 | 0.00 | 0.00 | 0.17 | 28 | 1007.3 |
| 20260506001559 | 60 | 223 | 0.0 | 0.0 | 0.00 | 0.00 | 0.17 | 28 | 1006.9 |
| 20260506000159 | 60 | 223 | 0.0 | 0.0 | 0.00 | 0.00 | 0.17 | 30 | 1006.9 |
| 20260505234559 | 60 | 224 | 0.0 | 0.0 | 0.00 | 0.00 | 0.17 | 33 | 1006.9 |
| 20260505233058 | 60 | 223 | 0.0 | 0.0 | 0.00 | 0.00 | 0.17 | 33 | 1006.8 |
| 20260505231558 | 60 | 223 | 0.0 | 0.0 | 0.00 | 0.00 | 0.17 | 30 | 1006.3 |
| 20260505230158 | 60 | 223 | 0.0 | 0.0 | 0.00 | 0.00 | 0.17 | 29 | 1006.2 |
| 20260505224556 | 60 | 223 | 0.9 | 0.0 | 0.00 | 0.00 | 0.17 | 24 | 1006.4 |
| 20260505223108 | 60 | 213 | 0.9 | 0.0 | 0.00 | 0.00 | 0.17 | 13 | 1006.1 |
| 20260505221555 | 59 | 221 | 0.0 | 0.0 | 0.00 | 0.00 | 0.17 | 13 | 1005.9 |
| 20260505220156 | 60 | 222 | 0.0 | 0.0 | 0.00 | 0.00 | 0.17 | 21 | 1006.7 |
| 20260505214556 | 60 | 223 | 1.7 | 0.0 | 0.00 | 0.00 | 0.17 | 31 | 1006.8 |
| 20260505213155 | 61 | 259 | 3.5 | 0.0 | 0.00 | 0.00 | 0.16 | 48 | 1006.8 |
| 20260505211553 | 65 | 265 | 7.8 | 0.0 | 0.00 | 0.00 | 0.16 | 61 | 1006.8 |
| 20260505210154 | 72 | 238 | 5.2 | 0.0 | 0.00 | 0.00 | 0.13 | 36 | 1004.4 |
| 20260505204553 | 73 | 241 | 7.0 | 0.0 | 0.00 | 0.00 | 0.13 | 34 | 1004.0 |
| 20260505203055 | 75 | 232 | 7.0 | 0.0 | 0.00 | 0.00 | 0.13 | 33 | 1003.8 |
| 20260505201550 | 76 | 188 | 10.4 | 0.0 | 0.00 | 0.00 | 0.13 | 32 | 1003.9 |
| 20260505200150 | 76 | 216 | 9.6 | 0.0 | 0.00 | 0.00 | 0.13 | 33 | 1003.8 |
| 20260505194603 | 76 | 232 | 9.6 | 0.0 | 0.00 | 0.00 | 0.13 | 32 | 1003.8 |
| 20260505193048 | 76 | 246 | 7.8 | 0.0 | 0.00 | 0.00 | 0.13 | 35 | 1003.8 |
| 20260505191545 | 76 | 219 | 8.7 | 0.0 | 0.00 | 0.00 | 0.13 | 33 | 1004.3 |
| 20260505190145 | 75 | 274 | 8.7 | 0.0 | 0.00 | 0.00 | 0.13 | 36 | 1004.3 |
| 20260505184543 | 75 | 232 | 6.1 | 0.0 | 0.00 | 0.00 | 0.13 | 38 | 1004.3 |
| 20260505183044 | 74 | 257 | 9.6 | 0.0 | 0.00 | 0.00 | 0.13 | 38 | 1004.5 |
| 20260505181540 | 73 | 192 | 8.7 | 0.0 | 0.00 | 0.00 | 0.13 | 39 | 1005.0 |
| 20260505180140 | 74 | 290 | 10.4 | 0.0 | 0.00 | 0.00 | 0.13 | 40 | 1005.1 |
| 20260505174546 | 74 | 211 | 9.6 | 0.0 | 0.00 | 0.00 | 0.13 | 40 | 1005.1 |
| 20260505173044 | 73 | 218 | 8.7 | 0.0 | 0.00 | 0.00 | 0.13 | 40 | 1005.2 |
| 20260505171537 | 73 | 242 | 8.7 | 0.0 | 0.00 | 0.00 | 0.13 | 40 | 1005.2 |
| 20260505170136 | 74 | 212 | 9.6 | 0.0 | 0.00 | 0.00 | 0.13 | 41 | 1005.6 |
| 20260505164547 | 74 | 213 | 6.1 | 0.0 | 0.00 | 0.00 | 0.13 | 42 | 1005.7 |
| 20260505163032 | 74 | 194 | 9.6 | 0.0 | 0.00 | 0.00 | 0.13 | 41 | 1005.8 |
| 20260505161529 | 74 | 212 | 8.7 | 0.0 | 0.00 | 0.00 | 0.13 | 42 | 1005.7 |
| 20260505160128 | 73 | 225 | 7.8 | 0.0 | 0.00 | 0.00 | 0.13 | 43 | 1005.7 |
| 20260505153023 | 72 | 202 | 7.8 | 0.0 | 0.00 | 0.00 | 0.13 | 45 | 1006.3 |
| 20260505151521 | 72 | 245 | 7.8 | 0.0 | 0.00 | 0.00 | 0.13 | 45 | 1006.4 |
| 20260505150117 | 71 | 218 | 7.0 | 0.0 | 0.00 | 0.00 | 0.13 | 48 | 1006.4 |
| 20260505140109 | 67 | 228 | 4.3 | 0.0 | 0.00 | 0.00 | 0.13 | 51 | 1007.3 |
| 20260505124554 | 64 | 216 | 7.8 | 0.0 | 0.00 | 0.00 | 0.13 | 55 | 1007.5 |
| 20260505123049 | 63 | 200 | 6.1 | 0.0 | 0.00 | 0.00 | 0.13 | 55 | 1007.6 |
| 20260505121545 | 62 | 215 | 6.1 | 0.0 | 0.00 | 0.00 | 0.13 | 56 | 1007.6 |
| 20260505120042 | 61 | 213 | 5.2 | 0.0 | 0.00 | 0.00 | 0.13 | 56 | 1007.7 |
| 20260505114544 | 60 | 219 | 4.3 | 0.0 | 0.00 | 0.00 | 0.13 | 57 | 1007.7 |
| 20260505113035 | 59 | 222 | 4.3 | 0.0 | 0.00 | 0.00 | 0.13 | 56 | 1007.7 |
| 20260505111536 | 58 | 198 | 5.2 | 0.0 | 0.00 | 0.00 | 0.13 | 56 | 1007.6 |
| 20260505101520 | 52 | 202 | 0.9 | 0.0 | 0.00 | 0.00 | 0.13 | 23 | 1007.0 |
| 20260505100019 | 52 | 204 | 0.0 | 0.0 | 0.00 | 0.00 | 0.13 | 15 | 1007.0 |
| 20260505094519 | 52 | 204 | 0.0 | 0.0 | 0.00 | 0.00 | 0.13 | 23 | 1006.8 |